432  
ASUS41 KPHI 270612  
RWRPHI  
 
REGIONAL WEATHER ROUNDUP  
NATIONAL WEATHER SERVICE MOUNT HOLLY NJ  
200 AM EDT THU APR 27 2017  
 
NOTE: "FAIR" INDICATES FEW OR NO CLOUDS BELOW 12,000 FEET WITH NO  
SIGNIFICANT WEATHER AND/OR S TO VISIBILITY
.  
 
* = STATION DOES NOT REPORT PRECIPITATION (E.G. RAIN, SNOW, ETC.)  
OR FOG.
 
 
NJZ015>026-270700-  
SOUTHERN NEW JERSEY  
 
CITY SKY/WX TMP DP RH WIND PRES REMARKS
 
POMONA CLOUDY 56 54 93 SW3 29.85F  
6HR MIN TEMP: 56; 6HR MAX TEMP: 59;  
 
WILDWOOD* CLOUDY 58 57 97 CALM 29.86F  
MILLVILLE CLOUDY 59 59 100 CALM 29.85S FOG  
WRIGHTSTOWN CLOUDY 59 57 95 S3 29.83F  
MOUNT HOLLY CLOUDY 60 57 89 CALM 29.85S  
TRENTON CLOUDY 60 58 92 CALM 29.84F  
6HR MIN TEMP: 60; 6HR MAX TEMP: 63;  
 

 
NJZ001>014-270700-  
NORTHERN NEW JERSEY  
 
CITY SKY/WX TMP DP RH WIND PRES REMARKS
 
SUSSEX CLOUDY 57 56 96 CALM 29.86S FOG  
ANDOVER* N/A 58 56 93 CALM 29.85F  
MORRISTOWN CLOUDY 57 57 100 CALM 29.85F FOG  
NEWARK DRIZZLE 59 59 100 SW3 29.85S FOG  
TETERBORO DRZL/FOG 59 59 100 CALM 29.84S VSB 1/2  
CALDWELL CLOUDY 58 58 100 CALM 29.86S FOG  
SOMERVILLE CLOUDY 60 58 92 CALM 29.83F  
ALLAIRE* CLOUDY 58 57 97 CALM 29.86S FOG  
TOMS RIVER* CLOUDY 57 56 96 CALM 29.86F  
 

 
PAZ043-044-047-054-055-060>062-066>071-270700-  
EASTERN PENNSYLVANIA  
 
CITY SKY/WX TMP DP RH WIND PRES REMARKS
 
PHILADELPHIA CLOUDY 62 56 80 CALM 29.85F  
6HR MIN TEMP: 62; 6HR MAX TEMP: 63;  
 
NORTH PHILA CLOUDY 62 57 83 CALM 29.86F  
BLUE BELL* CLOUDY 57 57 100 CALM 29.87S  
DOYLESTOWN CLOUDY 59 58 96 CALM 29.84F  
QUAKERTOWN* CLOUDY 59 57 94 CALM 29.86S  
POTTSTOWN CLOUDY 59 56 89 CALM 29.86S  
LANCASTER FOG 55 55 100 CALM 29.84F VSB 1/4  
COATESVILLE CLOUDY 59 59 100 CALM 29.87S FOG  
READING CLOUDY 62 59 90 S3 29.83F  
6HR MIN TEMP: 61; 6HR MAX TEMP: 67;  
 
ALLENTOWN CLOUDY 62 55 77 S3 29.85S  
6HR MIN TEMP: 62; 6HR MAX TEMP: 65;  
 
MOUNT POCONO CLOUDY 54 54 100 SE3 29.86S FOG  
6HR MIN TEMP: 53; 6HR MAX TEMP: 56;  
 
HAZLETON CLOUDY 59 55 88 CALM 29.87S FOG  
LEHIGHTON CLOUDY 61 57 88 CALM 29.85S  
WILKES BARRE MOCLDY 58 55 90 CALM 29.83S  
 

 
DEZALL-MDZ008-012-015-019-020-270700-  
DELAWARE AND EASTERN MARYLAND  
 
CITY SKY/WX TMP DP RH WIND PRES REMARKS
 
WILMINGTON CLOUDY 60 59 96 SW3 29.86S  
6HR MIN TEMP: 60; 6HR MAX TEMP: 62;  
 
DOVER CLEAR 59 59 100 CALM 29.84S HAZE  
GEORGETOWN FOG 58 57 97 MISG 29.86F VSB 1/4  
6HR MIN TEMP: 58; 6HR MAX TEMP: 63;  
 
EASTON CLEAR 58 56 94 S3 29.88F FOG  
PATUXENT CLEAR 59 59 100 SE3 29.84F  
OCEAN CITY CLEAR 52 51 97 CALM 29.86S FOG  
WALLOPS ISLAND CLEAR 57 57 100 S5 29.86F  
CAMBRIDGE FOG 54 54 100 SE3 29.85S VSB 1/4  
SALISBURY FOG 54 54 100 CALM 29.85F VSB 1/2  
 

 
PAZ001-021-NYZ056-072-MDZ011-DCZ001-270700-  
OTHER NEARBY LOCATIONS  
 
CITY SKY/WX TMP DP RH WIND PRES REMARKS
 
HARRISBURG PTCLDY 56 56 100 E5 29.83S  
STATE COLLEGE CLEAR 59 56 88 SW6 29.80S  
WILLIAMSPORT CLOUDY 63 57 81 NE7 29.79S  
BINGHAMTON CLEAR 55 53 93 SE7 29.81S  
NEW YORK CITY CLOUDY 58 58 100 CALM 29.87S FOG  
BALTIMORE PTCLDY 54 54 100 CALM 29.84S  
WASHINGTON DC PTCLDY 61 58 90 CALM 29.84F  
 

 
 
 
CLICK HERE TO GO TO PREVIOUS BULLETINS.

The Nexlab PA Page
The Nexlab NJ Page
The Nexlab DE Page
The Nexlab MD Page Main Text Page